Henderson, KY

1:52 PM CDT on July 15, 2019 (GMT -0500)
Henderson City-County

Weather History for KEHR - May, 2019

Change the Weather History Date:

Tuesday, May 14, 2019

  Actual Average Record
Temperature  
Mean Temperature 56 °F -  
Max Temperature 70 °F 77 °F 93 °F (2018)
Min Temperature 42 °F 54 °F 41 °F (1939)
Degree Days  
Heating Degree Days 9    
Growing Degree Days 6 (Base 50)    
Moisture  
Dew Point 46 °F    
Average Humidity 69    
Maximum Humidity 100    
Minimum Humidity 36    
Precipitation  
Precipitation 0.00 in - - ()
Sea Level Pressure  
Sea Level Pressure 30.09 in    
Wind  
Wind Speed 2 mph (West)    
Max Wind Speed 8 mph    
Max Gust Speed -    
Visibility 10 miles    
Events      
Averages and records for this station are not official NWS values.
T = Trace of Precipitation, MM = Missing Value Source: NWS Daily Summary

Daily Weather History Graph

Daily Weather History Graph

Search for Another Location

Airport or City:

Astronomy

May. 14, 2019 Rise Set
Actual Time 5:41 AM CDT 7:52 PM CDT
Civil Twilight 5:12 AM CDT 8:22 PM CDT
Nautical Twilight 4:36 AM CDT 8:58 PM CDT
Astronomical Twilight 3:57 AM CDT 9:37 PM CDT
Moon 3:20 PM CDT (5/14) 3:27 AM CDT (5/14)
Length of Visible Light 15h 09m
Length of Day
14h 10m
Waxing Gibbous, 79% of the Moon is Illuminated
May 14
Waxing Gibbous
May 18
Full
May 26
Last Quarter
Jun 3
New
Jun 10
First Quarter

Hourly Weather History & Observations

Time (CDT) Temp. Windchill Dew Point Humidity Pressure Visibility Wind Dir Wind Speed Gust Speed Precip Events Conditions
12:56 AM 48.0 °F - 45.0 °F 89% 30.08 in 10.0 mi SW 3.5 mph - N/A   Clear
1:56 AM 46.9 °F - 45.0 °F 93% 30.07 in 10.0 mi Calm Calm - N/A   Clear
2:56 AM 45.0 °F - 45.0 °F 100% 30.07 in 10.0 mi Calm Calm - N/A   Clear
3:56 AM 44.1 °F - 44.1 °F 100% 30.09 in 10.0 mi Calm Calm - N/A   Clear
4:56 AM 44.1 °F 42.5 °F 43.0 °F 96% 30.09 in 10.0 mi SSW 3.5 mph - N/A   Clear
5:45 AM 42.8 °F - 42.8 °F 100% 30.07 in 9.0 mi Calm Calm - N/A   Partly Cloudy
5:56 AM 44.1 °F - 44.1 °F 100% 30.11 in 10.0 mi Calm Calm - N/A   Partly Cloudy
6:56 AM 48.9 °F - 46.9 °F 93% 30.12 in 10.0 mi Calm Calm - N/A   Clear
7:03 AM 48.2 °F - 46.4 °F 93% 30.09 in 10.0 mi Calm Calm - N/A   Partly Cloudy
7:56 AM 54.0 °F - 48.0 °F 80% 30.14 in 10.0 mi Calm Calm - N/A   Clear
8:39 AM 57.2 °F - 48.2 °F 72% 30.10 in 10.0 mi NW 4.6 mph - N/A   Partly Cloudy
8:56 AM 59.0 °F - 48.0 °F 67% 30.14 in 10.0 mi West 4.6 mph - N/A   Partly Cloudy
9:56 AM 63.0 °F - 46.9 °F 56% 30.14 in 10.0 mi NW 4.6 mph - N/A   Clear
10:56 AM 66.0 °F - 45.0 °F 47% 30.14 in 10.0 mi WNW 5.8 mph - N/A   Clear
11:56 AM 66.0 °F - 41.0 °F 40% 30.13 in 10.0 mi NE 4.6 mph - N/A   Partly Cloudy
12:56 PM 68.0 °F - 39.9 °F 36% 30.12 in 10.0 mi NE 6.9 mph - N/A   Partly Cloudy
1:56 PM 70.0 °F - 45.0 °F 41% 30.10 in 10.0 mi South 8.1 mph - N/A   Scattered Clouds
2:56 PM 70.0 °F - 43.0 °F 38% 30.08 in 10.0 mi West 8.1 mph - N/A   Partly Cloudy
3:56 PM 70.0 °F - 43.0 °F 38% 30.06 in 10.0 mi North 3.5 mph - N/A   Partly Cloudy
4:56 PM 70.0 °F - 43.0 °F 38% 30.05 in 10.0 mi South 4.6 mph - N/A   Clear
5:56 PM 69.1 °F - 44.1 °F 40% 30.04 in 10.0 mi WSW 4.6 mph - N/A   Clear
6:56 PM 68.0 °F - 43.0 °F 40% 30.04 in 10.0 mi NW 3.5 mph - N/A   Clear
7:56 PM 66.0 °F - 48.0 °F 52% 30.05 in 10.0 mi Calm Calm - N/A   Clear
8:56 PM 62.1 °F - 52.0 °F 70% 30.06 in 7.0 mi Calm Calm - N/A   Scattered Clouds
9:56 PM 60.1 °F - 53.1 °F 78% 30.07 in 10.0 mi Calm Calm - 0.00 in   Scattered Clouds
10:56 PM 57.0 °F - 52.0 °F 83% 30.06 in 10.0 mi South 3.5 mph - N/A   Clear
11:56 PM 55.9 °F - 48.9 °F 77% 30.06 in 10.0 mi SSW 3.5 mph - N/A   Clear